Location: Hermaringen
(48.5952°N, 10.2585°E)
Time: 11:15:07
(UTC+00:00)

Courier 1B - Pass Details

Date: 17 February 2026
Orbit: 962 x 1208 km, 28.3° (Epoch: 7 March)

Event Time Altitude Azimuth Distance (km) Brightness Sun altitude
Rises 21:40:56 0° 238° (WSW) 4,022 - -46.4°
Reaches altitude 10° 21:45:07 10° 217° (SW) 3,097 - -46.9°
Maximum altitude 21:49:12 15° 185° (S) 2,740 - -47.3°
Drops below altitude 10° 21:53:20 10° 153° (SSE) 3,136 - -47.7°
Sets 21:57:37 0° 132° (SE) 4,103 - -48.1°
